Location: Buckeye Ditch
(40.9104°N, 122.9517°W)
Time: 13:07:40
(UTC+00:00)

Tiros 1 despin weight - Pass Details

Date: 27 May 2025
Orbit: 563 x 601 km, 48.2° (Epoch: 22 June)

Event Time Altitude Azimuth Distance (km) Brightness Sun altitude
Rises 08:40:07 0° 252° (WSW) 2,782 - -27.3°
Reaches altitude 10° 08:42:24 10° 256° (WSW) 1,892 - -27.2°
Maximum altitude 08:46:41 59° 337° (NNW) 680 - -27.1°
Exits shadow 08:47:19 52° 15° (NNE) 731 ? -27.1°
Drops below altitude 10° 08:51:02 10° 57° (ENE) 1,922 ? -27.0°
Sets 08:53:22 0° 61° (ENE) 2,831 ? -26.9°
